Find Starlink 35633

NORAD ID: 66162 Int'l Des: 2025-240 Owner: SPXS Country: US Constellation: starlink operational
LEOCIRCULAR

当前视图

正在加载3D地球...

About Starlink 35633

Starlink 35633 (NORAD 66162) is a starlink constellation satellite (v2 mini) launched Oct 25, 2025 by SPXS of US. It operates in LEO, CIRCULAR orbit with a mass of 575.00 kg.

即将过境

Passes for default location (London). Set your location on the main map for personalized predictions.

高度历史

Loading altitude history...

两行轨道根数

1 66162U 25240S 26264.64248211 .00013808 00000-0 41900-3 0 9999
2 66162 53.1561 230.2152 0000748 80.4983 279.6104 15.34403886 52020
Epoch: Sep 21, 2026 • Age: 17 hours

当前状态

高度 480.7 km
远地点 / 近地点 N/A
速度 7.62 km/s
星下点 -50.92°S, 34.83°E
发射日期 Oct 25, 2025
运行时间 0.9 years
类型 internet

技术详情

分类 Payload
质量 575.00 kg
干质量 530.00 kg
长度 0.30 m
跨度 29.00 m
形状 ? Box + pan
制造商 SPXS
平台类型 Starlink V2MO
阶段状态 In Orbit
所有者/国家 SPXS/US

Most Searched